Regional Weather Roundup
Issued by NWS Albany, NY

Home | Current Version | Previous Version | Text Only | Print | Product List | Glossary On
Versions: 1 2 3 4 5 6 7 8 9 10 11 12 13 14 15 16 17 18 19 20 21 22 23 24 25 26 27 28 29 30 31 32 33 34 35 36 37 38 39 40 41 42 43 44 45 46 47 48 49 50
000
ASUS41 KALY 260710
RWRALY

NEW YORK STATE HOURLY WEATHER ROUNDUP
NATIONAL WEATHER SERVICE ALBANY NY
200 AM EST WED NOV 26 2014

NOTE: "FAIR" INDICATES FEW OR NO CLOUDS BELOW 12,000 FEET WITH NO
SIGNIFICANT WEATHER AND/OR NO OBSTRUCTIONS TO VISIBILITY.

NYZ032-033-038>043-046>054-057>066-NYZ062>081-260800-
EAST


CITY           SKY/WX    TMP DP  RH WIND       PRES   REMARKS
ALBANY         CLOUDY    40  29  64 NW8       30.21R WCI  34
GLENS FALLS    CLOUDY    40  26  57 VRB6      30.17R
POUGHKEEPSIE   CLOUDY    40  31  70 CALM      30.19R
MONTGOMERY     CLOUDY    36  30  79 CALM      30.16R
WHITE PLAINS   CLOUDY    46  28  49 CALM      30.15R
ISLIP          CLOUDY    48  32  53 W7        30.17R
NEW YORK CITY  CLOUDY    51  29  42 NW12      30.17R
CENTRAL PARK   CLOUDY    51  27  39 W6        30.19R
$$

NYZ005>009-017-018-044>046-055-056-260800-
CENTRAL


CITY           SKY/WX    TMP DP  RH WIND       PRES   REMARKS
FULTON         CLOUDY    37  25  61 W6        30.21S WCI  32
SYRACUSE       CLOUDY    37  25  61 W8        30.22R WCI  31
ROME           CLOUDY    36  28  73 W6        30.22S WCI  31
ELMIRA         CLOUDY    36  29  75 NE9       30.20R WCI  29
BINGHAMTON     CLOUDY    32  27  81 N10       30.16R WCI  24
MONTICELLO     CLOUDY    34  27  75 CALM      30.17R
$$

NYZ026>034-041>043-260800-
NORTH


CITY           SKY/WX    TMP DP  RH WIND       PRES   REMARKS
WATERTOWN      PTCLDY    35  23  61 NW9       30.20R WCI  28
FORT DRUM      NOT AVBL
MASSENA        CLOUDY    35  24  64 SW8       30.19R WCI  29
SARANAC LAKE   MOCLDY    30  22  72 W6        30.11S WCI  24
PLATTSBURGH    CLOUDY    37  22  54 W9G20     30.17S WCI  30
$$

NYZ001>004-010>016-019>021-260800-
WEST


CITY           SKY/WX    TMP DP  RH WIND       PRES   REMARKS
NIAGARA FALLS  CLOUDY    32  21  64 W7        30.19S WCI  26
BUFFALO        CLOUDY    34  21  59 NW8       30.18S WCI  27
DUNKIRK        CLOUDY    35  26  69 NW6       30.19R WCI  30
JAMESTOWN      CLOUDY    30  23  74 SW5       30.15R WCI  25
WELLSVILLE     CLOUDY    31  23  72 NW6       30.15R WCI  25
ROCHESTER      CLOUDY    34  23  64 S3        30.20S
PENN YAN       CLOUDY    34  23  64 NW3       30.21R
$$

             KEY
       WCI = WIND CHILL INDEX
       VSB = VISIBILITY
       HX  = HEAT INDEX
$$


USA.gov is the U.S. government's official web portal to all federal, state and local government web resources and services.